Home > Weather > Coral Harbour > Past weeks

Flag for Canada Past Weather in Coral Harbour, Nunavut, Canada — Yesterday and Last 2 Weeks

Now
28 °F

Overcast.


Feels Like: 20 °F
Forecast: 24 / 34 °F
Wind: 9 mph from Northwest

Location: Coral Harbour

Current Time: May 26, 2016 at 11:34:20 AM

Latest Report: May 26, 2016 at 11:00 AM


Visibility: 15 mi

Pressure: 30.28 "Hg

Humidity: 74%

Dew Point: 21 °F

Location of Coral HarbourLocation

Past Weather in Coral Harbour — Graph

°F

Coral Harbour Temperature Yesterday

Maximum temperature yesterday: 34 °F (at 1:00 PM)
Minimum temperature yesterday: 21 °F (at 1:00 AM)
Average temperature yesterday: 28 °F

High & Low Weather Summary for the Past Weeks

 TemperatureHumidityPressure
High34 °F (May 25, 1:00 PM)100% (May 15, 7:00 AM)30.28 "Hg (May 15, 7:00 AM)
Low7 °F (May 13, 10:00 PM)63% (May 13, 4:00 PM)29.47 "Hg (May 22, 1:00 PM)
Average25 °F82%29.87 "Hg
* Reported May 11 10:00 AM — May 26 10:00 AM, Coral Harbour, Weather by CustomWeather, © 2016

Note: Actual official high and low records may vary slightly from our data, if they occured in-between our weather recording intervals... More about our weather records

Advertising

Coral Harbour Weather History for the Previous 24 Hours

Scroll right to see more
 ConditionsComfort  
Time TempWeatherWind HumidityBarometerVisibility
10:00 AM
Thu, May 26
28 °FOvercast.9 mph74%30.27 "Hg15 mi
9:00 AM27 °FOvercast.7 mph80%30.28 "Hg15 mi
8:00 AM27 °FOvercast.8 mph80%30.28 "Hg15 mi
7:00 AM27 °FOvercast.9 mph80%30.27 "Hg15 mi
6:00 AM27 °FOvercast.7 mph80%30.27 "Hg15 mi
5:00 AM27 °FOvercast.8 mph80%30.26 "Hg15 mi
4:00 AM27 °FOvercast.8 mph80%30.25 "Hg15 mi
3:00 AM27 °FOvercast.8 mph80%30.24 "Hg15 mi
2:00 AM25 °FPassing clouds.9 mph86%30.23 "Hg15 mi
1:00 AM25 °FPassing clouds.10 mph86%30.22 "Hg15 mi
12:00 AM21 °FPassing clouds.8 mph86%30.22 "Hg15 mi
11:00 PM
Wed, May 25
25 °FPartly sunny.13 mph80%30.20 "Hg15 mi
10:00 PM25 °FPassing clouds.8 mph86%30.19 "Hg15 mi
9:00 PM27 °FPassing clouds.14 mph86%30.18 "Hg15 mi
8:00 PM30 °FPassing clouds.13 mph80%30.17 "Hg15 mi
7:00 PM30 °FPartly sunny.15 mph86%30.16 "Hg15 mi
6:00 PM32 °FOvercast.15 mph80%30.14 "Hg15 mi
5:00 PM32 °FOvercast.16 mph80%30.12 "Hg15 mi
4:00 PM34 °FOvercast.17 mph75%30.11 "Hg15 mi
3:00 PM34 °FOvercast.18 mph75%30.09 "Hg15 mi
2:00 PM34 °FOvercast.15 mph75%30.09 "Hg15 mi
1:00 PM34 °FOvercast.15 mph75%30.06 "Hg15 mi
12:00 PM32 °FOvercast.16 mph80%30.05 "Hg15 mi
11:00 AM32 °FPartly sunny.17 mph80%30.03 "Hg15 mi
Weather by CustomWeather, © 2016

See weather overviewHow to use our weather pages